Starlink 32276

operational
NORAD ID: 60944 Int'l Des: 2024-155 Owner: SPXS Country: US Constellation: starlink
LEOCIRCULAR

About Starlink 32276

Description loading...

Live Position

Loading 3D Globe...

Upcoming Passes

Altitude History

Altitude vs Time

uPlot chart will show altitude changes over time

Two-Line Element Set

1 60944U 24155W 25351.82156425 -.00002533 00000-0 -73464-4 0 9992
2 60944 53.1613 150.1377 0001580 74.8255 285.2920 15.30179170 73858
Epoch: Dec 17, 2025 • Age: 16 hours

Current Status

Altitude 475.4 km
Velocity 7.63 km/s
Sub-Earth Point 14.79°N, 46.83°E
Launch Date Aug 31, 2024
Age 1.2 years
Type internet

Technical Details

Classification Payload
Mass 730.00 kg
Dry Mass 700.00 kg
Total Mass 730.00 kg
Length 0.30 m
Diameter 4.10 m
Span 29.00 m
Shape Box + pan
Manufacturer SPXS
Bus Type Starlink V2M
Phase Status In Orbit
Owner/State SPXS/US

Large Constellations

Loading constellations...